[[{"header":{"parameterUnit":"m.s-1","parameterCategory":2,"la1":30.2991,"la2":30.254,"lo1":-89.0895,"lo2":-89.0444,"dy":0.0017,"dx":0.0017,"nx":28,"ny":28,"refTime":"2026-01-05T03:00:00:Z","depth":"0","parameterNumber":2,"parameterNumberName":"U-component_of_CURRENTS"},"data":[0,0,0,0,0,0,0,0,0,0,0,0,0,0,0,0,0,0,0,0,0,0,0,0,0,0,0,0,0,0,0,0,0,0,0,0,0,0,0,0,0,0,0,0,0,0,0,0,0,0,0,0,0,0,0,0,0,0,-0.233,-0.233,0,-0.2347,-0.2347,-0.2347,-0.2374,-0.2375,-0.2376,-0.2376,-0.2422,-0.2422,-0.2423,0,0,0,0,0,0,0,0,0,0,0,0,0,-0.2282,-0.2283,-0.233,-0.233,-0.2331,-0.2347,-0.2347,-0.2347,-0.2374,-0.2375,-0.2376,-0.2377,-0.2421,-0.2422,-0.2423,0,0,0,0,0,0,0,0,0,0,0,0,0,-0.2299,-0.2283,-0.233,-0.2348,-0.235,-0.2347,-0.2347,-0.2347,-0.2374,-0.2375,-0.2376,-0.2377,-0.2421,-0.2422,-0.2423,-0.2406,0,0,-0.2425,-0.2426,0,0,0,0,0,0,0,0,-0.2298,-0.23,-0.2345,-0.2347,-0.2349,-0.2362,-0.2347,-0.2369,-0.2373,-0.2362,-0.2376,-0.2377,-0.2405,-0.2407,-0.2404,-0.2408,-0.241,-0.2425,-0.2426,-0.2426,-0.2426,0,0,0,0,0,0,0,-0.2297,-0.23,-0.2334,-0.2345,-0.2348,-0.2342,-0.2346,-0.2351,-0.2376,-0.2363,-0.2366,-0.2371,-0.2406,-0.2403,-0.2405,-0.2411,-0.2425,-0.2426,-0.2426,-0.2427,-0.239,-0.2388,0,0,0,0,0,0,-0.2301,-0.2299,-0.2334,-0.2335,-0.2328,-0.2343,-0.2347,-0.2354,-0.2375,-0.238,-0.237,-0.2373,-0.2401,-0.2404,-0.2407,-0.2398,-0.2426,-0.2427,-0.2427,-0.2391,-0.2389,-0.2388,0,0,0,0,0,0,-0.23,-0.2304,-0.2333,-0.2319,-0.2323,-0.2343,-0.2351,-0.2354,-0.2359,-0.2381,-0.2386,-0.2373,-0.2402,-0.2406,-0.2402,-0.24,-0.2427,-0.2428,-0.2393,-0.239,-0.2388,-0.2373,0,0,0,0,0,0,-0.2298,-0.2303,-0.2305,-0.2319,-0.2324,-0.2332,-0.235,-0.2354,-0.2362,-0.2365,-0.2385,-0.239,-0.2403,-0.24,-0.2403,-0.2401,-0.2429,-0.2395,-0.2392,-0.2389,-0.2375,-0.2371,-0.2367,0,0,0,0,0,-0.2296,-0.2293,-0.2305,-0.2309,-0.2328,-0.2332,-0.2333,-0.2349,-0.2361,-0.2358,-0.2363,-0.2389,-0.2385,-0.24,-0.2403,-0.2402,-0.2396,-0.2393,-0.2389,-0.2377,-0.2372,-0.2367,0,0,0,0,0,0,-0.2273,-0.2297,-0.231,-0.2315,-0.2325,-0.2338,-0.2334,-0.2348,-0.2349,-0.2351,-0.2372,-0.2377,-0.2372,-0.2378,-0.2395,-0.2378,-0.2394,-0.2391,-0.2384,-0.2378,-0.2374,-0.238,-0.2429,0,0,0,0,0,-0.2269,-0.2271,-0.2296,-0.2296,-0.2303,-0.2318,-0.2321,-0.2334,-0.234,-0.2342,-0.2354,-0.2357,-0.2357,-0.2362,-0.2361,-0.2354,-0.2347,-0.2351,-0.2347,-0.2343,-0.2347,-0.2326,-0.2321,-0.2377,-0.2377,-0.2377,0,0,-0.2257,-0.2271,-0.2272,-0.2291,-0.2298,-0.2304,-0.2322,-0.2325,-0.2329,-0.2346,-0.2343,-0.2343,-0.2348,-0.2339,-0.2338,-0.235,-0.2317,-0.2339,-0.2337,-0.2342,-0.2322,-0.2317,-0.2313,-0.2375,-0.2375,-0.2375,0,0,-0.2232,-0.225,-0.2245,-0.2257,-0.2273,-0.2286,-0.2289,-0.2302,-0.2308,-0.2304,-0.2313,-0.2306,-0.231,-0.231,-0.2312,-0.2278,-0.2292,-0.2279,-0.2271,-0.225,-0.2246,-0.2243,-0.2206,-0.2199,-0.2281,-0.2281,-0.2281,0,-0.2215,-0.2222,-0.2241,-0.2245,-0.2255,-0.228,-0.228,-0.2286,-0.2295,-0.2296,-0.2301,-0.2289,-0.2295,-0.2286,-0.2275,-0.2272,-0.2258,-0.2297,-0.2247,-0.2243,-0.224,-0.2203,-0.2196,-0.228,-0.228,-0.228,-0.228,0,-0.2192,-0.2201,-0.2197,-0.2215,-0.2226,-0.2227,-0.2251,-0.2254,-0.2265,-0.2273,-0.2263,-0.2257,-0.2255,-0.225,-0.2257,-0.2236,-0.2231,-0.2243,-0.2267,-0.2234,-0.2197,-0.2189,-0.2278,-0.2279,-0.2279,-0.2279,0,0,-0.2139,-0.2175,-0.2172,-0.2185,-0.2214,-0.222,-0.2227,-0.2241,-0.2247,-0.2244,-0.2243,-0.2229,-0.2231,-0.2231,-0.2233,-0.2217,-0.2173,-0.2223,-0.2222,-0.2198,-0.2114,-0.202,-0.2004,-0.2182,-0.2181,-0.218,-0.2091,0,-0.2113,-0.212,-0.2144,-0.2151,-0.216,-0.2193,-0.2201,-0.2217,-0.2228,-0.2231,-0.2227,-0.2223,-0.2224,-0.2222,-0.2204,-0.2192,-0.2156,-0.2195,-0.2141,-0.2138,-0.2069,-0.1993,-0.1896,-0.18,-0.2084,-0.2083,-0.2082,0,-0.2076,-0.2092,-0.2096,-0.2135,-0.2141,-0.2148,-0.2174,-0.2185,-0.2202,-0.221,-0.2208,-0.2214,-0.2196,-0.2198,-0.2146,-0.2174,-0.2137,-0.2117,-0.2113,-0.2031,-0.2031,-0.1882,-0.1777,-0.1765,-0.2072,-0.2072,-0.2073,0,-0.2029,-0.2055,-0.2062,-0.2073,-0.2117,-0.2123,-0.2144,-0.2169,-0.2176,-0.2196,-0.2195,-0.219,-0.2171,-0.2145,-0.21,-0.2128,-0.203,-0.2064,-0.1935,-0.1928,-0.1835,-0.182,-0.1722,-0.2003,-0.2003,-0.2003,-0.2004,0,-0.1991,-0.1992,-0.204,-0.2044,-0.2048,-0.2094,-0.2096,-0.212,-0.2145,-0.2143,-0.2176,-0.2154,-0.2156,-0.2108,-0.2084,-0.1968,-0.2009,-0.1909,-0.189,-0.1822,-0.1808,-0.1787,-0.1819,-0.2,-0.2001,-0.2001,-0.2002,0,-0.1926,-0.1962,-0.1968,-0.2012,-0.2024,-0.2024,-0.2061,-0.2063,-0.21,-0.2097,-0.2102,-0.2108,-0.2039,-0.2012,-0.1951,-0.1915,-0.1796,-0.1788,-0.1695,-0.1666,-0.1542,-0.1577,-0.1469,-0.1431,-0.1638,-0.1635,-0.1633,0,-0.1889,-0.1888,-0.1927,-0.1928,-0.1942,-0.1957,-0.1965,-0.2022,-0.2031,-0.2054,-0.2042,-0.1989,-0.1912,-0.178,-0.1703,-0.1603,-0.1643,-0.1479,-0.1509,-0.149,-0.1518,-0.1563,-0.1545,-0.1376,-0.1371,-0.1368,-0.1365,0,-0.181,-0.1826,-0.1833,-0.1837,-0.1845,-0.1861,-0.1885,-0.1895,-0.1957,-0.1942,-0.1896,-0.1834,-0.1692,-0.153,-0.1411,-0.1361,-0.144,-0.14,-0.1409,-0.1309,-0.1325,-0.1295,-0.1485,-0.1332,-0.1336,-0.1338,-0.134,-0.1341,-0.1735,-0.1721,-0.1731,-0.1727,-0.1744,-0.1757,-0.1733,-0.1759,-0.1748,-0.169,-0.1723,-0.156,-0.1438,-0.1232,-0.1178,-0.1065,-0.1159,-0.1059,-0.1103,-0.1151,-0.1105,-0.1206,-0.1021,-0.1022,-0.1024,-0.1025,-0.1026,0,-0.1627,-0.1626,-0.1619,-0.1623,-0.1619,-0.1654,-0.1661,-0.1592,-0.1528,-0.1456,-0.1367,-0.1195,-0.1052,-0.0968,-0.0853,-0.0802,-0.0821,-0.081,-0.0871,-0.0868,-0.096,-0.0938,-0.0693,-0.0693,-0.0693,-0.0693,-0.0693,-0.0693,-0.1566,-0.1521,-0.1524,-0.1488,-0.1502,-0.143,-0.141,-0.1294,-0.1189,-0.0966,-0.0823,-0.073,-0.0737,-0.079,-0.0729,-0.0695,-0.0724,-0.068,-0.0744,-0.0839,-0.0867,-0.0895,-0.088,-0.0626,-0.0627,-0.061,-0.061,-0.061]},{"header":{"parameterUnit":"m.s-1","parameterCategory":2,"la1":30.2991,"la2":30.254,"lo1":-89.0895,"lo2":-89.0444,"dy":0.0017,"dx":0.0017,"nx":28,"ny":28,"refTime":"2026-01-05T03:00:00:Z","depth":"0","parameterNumber":3,"parameterNumberName":"V-component_of_CURRENTS"},"data":[0,0,0,0,0,0,0,0,0,0,0,0,0,0,0,0,0,0,0,0,0,0,0,0,0,0,0,0,0,0,0,0,0,0,0,0,0,0,0,0,0,0,0,0,0,0,0,0,0,0,0,0,0,0,0,0,0,0,-0.0337,-0.0335,0,-0.0217,-0.0216,-0.0215,-0.0133,-0.0132,-0.0132,-0.0131,0.0033,0.0037,0.004,0,0,0,0,0,0,0,0,0,0,0,0,0,-0.0448,-0.0446,-0.0337,-0.0335,-0.0334,-0.0218,-0.0216,-0.0214,-0.0133,-0.0132,-0.0132,-0.0131,0.0032,0.0036,0.0041,0,0,0,0,0,0,0,0,0,0,0,0,0,-0.0371,-0.0446,-0.0337,-0.0279,-0.0273,-0.0218,-0.0216,-0.0214,-0.0133,-0.0132,-0.0131,-0.0131,0.003,0.0036,0.0041,0.0059,0,0,0.0059,0.0061,0,0,0,0,0,0,0,0,-0.0376,-0.0367,-0.0289,-0.0283,-0.0276,-0.0189,-0.0195,-0.012,-0.0133,-0.0186,-0.0131,-0.013,-0.0038,-0.0027,-0.0007,0.0066,0.0074,0.0059,0.0063,0.0065,0.0067,0,0,0,0,0,0,0,-0.0381,-0.0372,-0.0289,-0.0288,-0.028,-0.0243,-0.0232,-0.018,-0.0118,-0.0181,-0.0175,-0.0162,-0.0034,-0.0012,-0.0002,0.0076,0.0059,0.0064,0.0068,0.007,0.0175,0.0175,0,0,0,0,0,0,-0.0399,-0.0377,-0.0293,-0.0286,-0.0325,-0.0242,-0.0229,-0.0218,-0.0119,-0.0103,-0.0163,-0.0159,-0.0023,-0.0009,0.0004,0.0037,0.0065,0.0071,0.0074,0.0176,0.0175,0.0174,0,0,0,0,0,0,-0.0402,-0.0393,-0.0298,-0.0329,-0.0314,-0.0242,-0.0229,-0.0216,-0.0192,-0.0106,-0.0089,-0.0153,-0.0021,-0.0004,0.0043,0.0044,0.0073,0.0078,0.0177,0.0176,0.0175,0.0099,0,0,0,0,0,0,-0.0406,-0.0395,-0.0397,-0.033,-0.0313,-0.027,-0.0229,-0.0214,-0.0185,-0.0179,-0.0091,-0.0075,-0.0019,0.0034,0.0049,0.0052,0.0083,0.0177,0.0176,0.0175,0.0103,0.0096,0.009,0,0,0,0,0,-0.041,-0.041,-0.0398,-0.0387,-0.0316,-0.027,-0.0258,-0.0203,-0.0186,-0.0178,-0.0125,-0.0077,0.0037,0.0038,0.0055,0.0061,0.0178,0.0176,0.0175,0.0106,0.0097,0.009,0,0,0,0,0,0,-0.0451,-0.04,-0.0385,-0.0367,-0.0327,-0.0256,-0.0242,-0.0212,-0.0164,-0.0158,-0.0082,-0.0063,-0.0023,0.0024,0.0023,0.0085,0.0114,0.0116,0.0055,0.0048,0.0042,0.0031,0.0088,0,0,0,0,0,-0.0466,-0.0456,-0.0401,-0.0389,-0.0372,-0.0313,-0.029,-0.0255,-0.0203,-0.0181,-0.0122,-0.0064,-0.0016,0.0018,0.0066,0.0104,0.015,0.0117,0.011,0.0105,0.0106,0.0163,0.0162,0.017,0.017,0.017,0,0,-0.0478,-0.045,-0.0443,-0.0398,-0.0362,-0.0343,-0.0296,-0.0265,-0.0246,-0.0171,-0.0133,-0.0085,-0.0014,0.0025,0.0048,0.0068,0.0126,0.0103,0.0098,0.0102,0.0161,0.016,0.016,0.0169,0.0169,0.0169,0,0,-0.0497,-0.0474,-0.0474,-0.0447,-0.0404,-0.0367,-0.0364,-0.0302,-0.0273,-0.0235,-0.0182,-0.0137,-0.0059,-0.0008,0.0028,0.0016,0.0085,0.0028,0.0001,0.0055,0.0055,0.0056,0.0109,0.0115,0.0033,0.0033,0.0033,0,-0.0515,-0.0506,-0.0466,-0.0459,-0.0441,-0.0385,-0.038,-0.0343,-0.0275,-0.0252,-0.0234,-0.0128,-0.0073,-0.0017,-0.0023,0.0004,0.0044,0.0024,0.0047,0.0049,0.0051,0.0106,0.0114,0.0029,0.0029,0.003,0.003,0,-0.0532,-0.0527,-0.0523,-0.05,-0.0477,-0.0463,-0.0412,-0.0387,-0.0351,-0.0307,-0.0253,-0.0183,-0.0116,-0.0097,-0.006,-0.002,0.0005,0.0026,0.0065,0.0046,0.0105,0.0114,0.0024,0.0025,0.0026,0.0027,0,0,-0.0558,-0.0541,-0.054,-0.0542,-0.05,-0.0481,-0.0458,-0.0413,-0.039,-0.0334,-0.0295,-0.0226,-0.0186,-0.0145,-0.0093,-0.0047,-0.0003,-0.0011,-0.0007,0.0041,0.0118,0.0149,0.0163,0.0021,0.0022,0.0023,0.0152,0,-0.0583,-0.0596,-0.0571,-0.0575,-0.0577,-0.0527,-0.0507,-0.0461,-0.0411,-0.036,-0.0288,-0.0234,-0.0203,-0.0172,-0.0124,-0.0026,0.0019,-0.004,0.0132,0.0137,0.0167,0.0174,0.0197,0.0315,0.0162,0.0163,0.0164,0,-0.0605,-0.0612,-0.0631,-0.0618,-0.0611,-0.0604,-0.056,-0.0533,-0.0452,-0.0412,-0.0348,-0.0283,-0.0202,-0.018,-0.003,-0.0069,0.001,0.008,0.0087,0.0151,0.0186,0.0312,0.0338,0.0418,0.018,0.0178,0.0177,0,-0.065,-0.0649,-0.0671,-0.0667,-0.0643,-0.0638,-0.0617,-0.0551,-0.052,-0.0441,-0.0402,-0.0302,-0.0233,-0.0133,0.001,-0.0007,0.0179,0.018,0.0283,0.0286,0.0358,0.0366,0.0484,0.0274,0.0274,0.0273,0.0273,0,-0.0687,-0.07,-0.0697,-0.0709,-0.0722,-0.0685,-0.0672,-0.0635,-0.0567,-0.0512,-0.0434,-0.0359,-0.0219,-0.0091,0.0014,0.0189,0.0189,0.0285,0.0324,0.0331,0.0335,0.045,0.047,0.0278,0.0277,0.0276,0.0275,0,-0.0729,-0.0731,-0.0754,-0.0749,-0.0747,-0.0756,-0.0719,-0.0698,-0.0633,-0.0557,-0.0532,-0.0385,-0.0211,-0.0066,0.0129,0.0211,0.0422,0.0417,0.0415,0.0451,0.0598,0.0611,0.0772,0.083,0.0547,0.0549,0.055,0,-0.0752,-0.0772,-0.0791,-0.0807,-0.0807,-0.0808,-0.0799,-0.0743,-0.0703,-0.0553,-0.0509,-0.0336,-0.0174,0.011,0.0274,0.0468,0.0519,0.0589,0.0553,0.0618,0.0663,0.0665,0.0701,0.0624,0.0626,0.0627,0.0628,0,-0.0788,-0.0798,-0.082,-0.0855,-0.0865,-0.0861,-0.0834,-0.0802,-0.0699,-0.0579,-0.0398,-0.0258,-0.0018,0.0227,0.0446,0.0553,0.0645,0.0625,0.0705,0.0743,0.0743,0.0813,0.0522,0.0642,0.064,0.0639,0.0639,0.0638,-0.0806,-0.0836,-0.0864,-0.0893,-0.0907,-0.088,-0.0798,-0.0718,-0.0583,-0.0298,-0.0268,0.0064,0.019,0.0511,0.0617,0.081,0.0774,0.087,0.0886,0.0885,0.0924,0.0654,0.0804,0.0804,0.0804,0.0803,0.0803,0,-0.0817,-0.0852,-0.089,-0.0908,-0.0903,-0.0893,-0.0784,-0.0616,-0.036,-0.0115,0.0131,0.0456,0.0648,0.0786,0.096,0.1066,0.1076,0.1116,0.1125,0.1155,0.0942,0.0926,0.1093,0.1093,0.1093,0.1093,0.1093,0.1093,-0.0823,-0.0865,-0.0889,-0.0887,-0.0874,-0.0719,-0.06,-0.0328,-0.0077,0.0409,0.0748,0.0927,0.1018,0.111,0.1263,0.1281,0.1372,0.1359,0.1412,0.1254,0.1232,0.1211,0.1202,0.1425,0.1425,0.1622,0.1624,0.1626]}],[{"header":{"parameterUnit":"m.s-1","parameterCategory":2,"la1":30.2991,"la2":30.254,"lo1":-89.0895,"lo2":-89.0444,"dy":0.0017,"dx":0.0017,"nx":28,"ny":28,"refTime":"2026-01-05T03:00:00:Z","depth":"2","parameterNumber":2,"parameterNumberName":"U-component_of_CURRENTS"},"data":[0,0,0,0,0,0,0,0,0,0,0,0,0,0,0,0,0,0,0,0,0,0,0,0,0,0,0,0,0,0,0,0,0,0,0,0,0,0,0,0,0,0,0,0,0,0,0,0,0,0,0,0,0,0,0,0,0,0,-0.1971,-0.1971,0,-0.1989,-0.1989,-0.1989,-0.1995,-0.1995,-0.1995,-0.1995,-0.1994,-0.1994,-0.1994,0,0,0,0,0,0,0,0,0,0,0,0,0,-0.194,-0.194,-0.1971,-0.1971,-0.1972,-0.1989,-0.1989,-0.1989,-0.1995,-0.1995,-0.1995,-0.1995,-0.1994,-0.1994,-0.1994,0,0,0,0,0,0,0,0,0,0,0,0,0,-0.1954,-0.194,-0.1971,-0.1978,-0.1978,-0.1989,-0.1989,-0.1989,-0.1995,-0.1995,-0.1995,-0.1995,-0.1994,-0.1994,-0.1994,-0.1992,0,0,-0.1994,-0.1994,0,0,0,0,0,0,0,0,-0.1953,-0.1955,-0.1976,-0.1977,-0.1978,-0.1991,-0.1978,-0.1989,-0.1995,-0.1987,-0.1995,-0.1995,-0.1992,-0.1992,-0.1994,-0.1992,-0.1992,-0.1994,-0.1994,-0.1993,-0.1993,0,0,0,0,0,0,0,-0.1952,-0.1954,-0.1977,-0.1977,-0.1978,-0.1979,-0.1981,-0.198,-0.1988,-0.1988,-0.1989,-0.1993,-0.1992,-0.1994,-0.1994,-0.1992,-0.1994,-0.1993,-0.1993,-0.1993,-0.1984,-0.1984,0,0,0,0,0,0,-0.1952,-0.1953,-0.1976,-0.1977,-0.1967,-0.198,-0.1982,-0.1986,-0.1988,-0.1989,-0.1993,-0.1993,-0.1994,-0.1994,-0.1994,-0.1991,-0.1993,-0.1993,-0.1993,-0.1984,-0.1984,-0.1983,0,0,0,0,0,0,-0.1952,-0.1954,-0.1975,-0.1967,-0.1969,-0.198,-0.1984,-0.1986,-0.1993,-0.1992,-0.1993,-0.1999,-0.1994,-0.1994,-0.1994,-0.1991,-0.1993,-0.1993,-0.1984,-0.1984,-0.1984,-0.1985,0,0,0,0,0,0,-0.1951,-0.1954,-0.1956,-0.1967,-0.197,-0.198,-0.1985,-0.1986,-0.1995,-0.1996,-0.1997,-0.1997,-0.1994,-0.1994,-0.1994,-0.1991,-0.1993,-0.1984,-0.1984,-0.1984,-0.1985,-0.1985,-0.1984,0,0,0,0,0,-0.1949,-0.1947,-0.1956,-0.1959,-0.1973,-0.198,-0.1981,-0.1988,-0.1996,-0.1995,-0.1998,-0.1997,-0.1992,-0.1994,-0.1994,-0.199,-0.1985,-0.1984,-0.1984,-0.1985,-0.1985,-0.1984,0,0,0,0,0,0,-0.1932,-0.1948,-0.1958,-0.196,-0.1971,-0.1981,-0.198,-0.1991,-0.1995,-0.1995,-0.1998,-0.1997,-0.1994,-0.1993,-0.1996,-0.1986,-0.1987,-0.1986,-0.1988,-0.1988,-0.1987,-0.1983,-0.1993,0,0,0,0,0,-0.1931,-0.1932,-0.1951,-0.1951,-0.1958,-0.1972,-0.1977,-0.1984,-0.199,-0.1992,-0.1995,-0.1994,-0.1992,-0.1991,-0.1987,-0.1985,-0.197,-0.1981,-0.198,-0.198,-0.1976,-0.1957,-0.1955,-0.1982,-0.1982,-0.1982,0,0,-0.1923,-0.1933,-0.1932,-0.1948,-0.1956,-0.1963,-0.1974,-0.1981,-0.1986,-0.1991,-0.1993,-0.1993,-0.1991,-0.1986,-0.1984,-0.1985,-0.1962,-0.198,-0.1979,-0.1975,-0.1957,-0.1954,-0.1952,-0.1982,-0.1982,-0.1982,0,0,-0.1905,-0.1918,-0.1914,-0.1927,-0.1943,-0.1954,-0.1959,-0.1974,-0.1978,-0.1984,-0.1987,-0.1984,-0.1985,-0.1979,-0.1977,-0.1972,-0.196,-0.1974,-0.197,-0.1952,-0.1949,-0.1947,-0.1913,-0.1907,-0.1974,-0.1974,-0.1974,0,-0.1895,-0.1899,-0.1914,-0.1919,-0.1929,-0.1951,-0.1956,-0.1964,-0.1977,-0.198,-0.1982,-0.1981,-0.1978,-0.1972,-0.197,-0.197,-0.1956,-0.1973,-0.1951,-0.1948,-0.1946,-0.1912,-0.1906,-0.1974,-0.1974,-0.1974,-0.1974,0,-0.1878,-0.1887,-0.1885,-0.1902,-0.1914,-0.1919,-0.1941,-0.1949,-0.1962,-0.197,-0.1969,-0.1965,-0.1965,-0.1963,-0.1966,-0.1951,-0.1943,-0.1953,-0.1952,-0.1943,-0.1907,-0.1901,-0.1974,-0.1974,-0.1974,-0.1974,0,0,-0.1835,-0.1868,-0.1866,-0.188,-0.1908,-0.1915,-0.1927,-0.1943,-0.1951,-0.1956,-0.196,-0.1952,-0.1955,-0.1953,-0.1954,-0.1939,-0.1906,-0.1941,-0.194,-0.1907,-0.1855,-0.1773,-0.1758,-0.1917,-0.1916,-0.1915,-0.1832,0,-0.1817,-0.1826,-0.1848,-0.1859,-0.1869,-0.19,-0.1911,-0.193,-0.1943,-0.1952,-0.1949,-0.1951,-0.1951,-0.1952,-0.1937,-0.1922,-0.1892,-0.1927,-0.1869,-0.1866,-0.1794,-0.1749,-0.1628,-0.1537,-0.1826,-0.1825,-0.1824,0,-0.1788,-0.1804,-0.1813,-0.1851,-0.1857,-0.1868,-0.1896,-0.191,-0.193,-0.1941,-0.1943,-0.1949,-0.1933,-0.1935,-0.1886,-0.1911,-0.1877,-0.1858,-0.1855,-0.1773,-0.1772,-0.1595,-0.1515,-0.1814,-0.1815,-0.1815,-0.1816,0,-0.1748,-0.1777,-0.1786,-0.1798,-0.1842,-0.1851,-0.1872,-0.19,-0.1909,-0.1933,-0.1935,-0.1932,-0.1916,-0.189,-0.1848,-0.1871,-0.1783,-0.181,-0.1696,-0.1689,-0.157,-0.1554,-0.1756,-0.1756,-0.1756,-0.1756,-0.1757,0,-0.1718,-0.1723,-0.177,-0.1775,-0.1784,-0.1828,-0.1838,-0.1862,-0.1889,-0.1886,-0.1922,-0.1903,-0.1904,-0.1861,-0.1834,-0.1729,-0.1765,-0.1672,-0.1656,-0.1565,-0.155,-0.1786,-0.1791,-0.1753,-0.1754,-0.1755,-0.1755,0,-0.1664,-0.1697,-0.1707,-0.1751,-0.1764,-0.1768,-0.1809,-0.1814,-0.1852,-0.1847,-0.1852,-0.1865,-0.1802,-0.1778,-0.172,-0.1684,-0.1617,-0.1568,-0.1451,-0.1421,-0.1542,-0.1547,-0.1437,-0.1433,-0.143,-0.1427,-0.1425,0,-0.1633,-0.1635,-0.1673,-0.1675,-0.1692,-0.1713,-0.1723,-0.1779,-0.1785,-0.1806,-0.179,-0.1749,-0.1678,-0.1564,-0.1493,-0.14,-0.149,-0.1258,-0.1276,-0.151,-0.1506,-0.1517,-0.1527,-0.1116,-0.1112,-0.1108,-0.1105,0,-0.1567,-0.1582,-0.1589,-0.1596,-0.1606,-0.1619,-0.1641,-0.164,-0.1693,-0.1684,-0.1639,-0.1585,-0.1469,-0.1309,-0.1207,-0.1157,-0.1271,-0.1177,-0.1435,-0.122,-0.1202,-0.12,-0.1221,-0.1071,-0.1075,-0.1077,-0.1079,-0.108,-0.1502,-0.1489,-0.1498,-0.1494,-0.151,-0.1501,-0.1454,-0.1485,-0.1463,-0.1405,-0.1452,-0.1319,-0.127,-0.1025,-0.0949,-0.0902,-0.1,-0.098,-0.0994,-0.1012,-0.0994,-0.0971,-0.0793,-0.0795,-0.0796,-0.0798,-0.0799,0,-0.1408,-0.1402,-0.1395,-0.1377,-0.1339,-0.1387,-0.1371,-0.1292,-0.1209,-0.1202,-0.1131,-0.0961,-0.0833,-0.0796,-0.0653,-0.0625,-0.065,-0.0618,-0.0659,-0.069,-0.0719,-0.069,-0.0406,-0.0405,-0.0405,-0.0404,0,0,-0.1354,-0.1309,-0.1305,-0.1206,-0.1187,-0.1066,-0.1017,-0.094,-0.0892,-0.079,-0.0728,-0.0759,-0.0751,-0.058,-0.0534,-0.0443,-0.0568,-0.0418,-0.0727,-0.0805,-0.0833,-0.0915,-0.0902,0,0,0,0,0]},{"header":{"parameterUnit":"m.s-1","parameterCategory":2,"la1":30.2991,"la2":30.254,"lo1":-89.0895,"lo2":-89.0444,"dy":0.0017,"dx":0.0017,"nx":28,"ny":28,"refTime":"2026-01-05T03:00:00:Z","depth":"2","parameterNumber":3,"parameterNumberName":"V-component_of_CURRENTS"},"data":[0,0,0,0,0,0,0,0,0,0,0,0,0,0,0,0,0,0,0,0,0,0,0,0,0,0,0,0,0,0,0,0,0,0,0,0,0,0,0,0,0,0,0,0,0,0,0,0,0,0,0,0,0,0,0,0,0,0,-0.0417,-0.0416,0,-0.032,-0.0319,-0.0317,-0.0258,-0.0257,-0.0257,-0.0257,-0.0152,-0.015,-0.0147,0,0,0,0,0,0,0,0,0,0,0,0,0,-0.0498,-0.0497,-0.0417,-0.0416,-0.0415,-0.032,-0.0318,-0.0317,-0.0258,-0.0257,-0.0257,-0.0257,-0.0153,-0.015,-0.0147,0,0,0,0,0,0,0,0,0,0,0,0,0,-0.0438,-0.0497,-0.0417,-0.0374,-0.0369,-0.032,-0.0318,-0.0317,-0.0258,-0.0257,-0.0257,-0.0256,-0.0154,-0.015,-0.0147,-0.0132,0,0,-0.0135,-0.0134,0,0,0,0,0,0,0,0,-0.0442,-0.0435,-0.0381,-0.0377,-0.0371,-0.03,-0.0309,-0.0255,-0.0258,-0.03,-0.0257,-0.0256,-0.0202,-0.0194,-0.0176,-0.0127,-0.0123,-0.0135,-0.0133,-0.0131,-0.013,0,0,0,0,0,0,0,-0.0446,-0.0439,-0.0378,-0.038,-0.0374,-0.0341,-0.0332,-0.0298,-0.0254,-0.0296,-0.0292,-0.0281,-0.0199,-0.018,-0.0174,-0.0121,-0.0135,-0.0132,-0.0129,-0.0128,-0.004,-0.004,0,0,0,0,0,0,-0.0461,-0.0443,-0.0381,-0.0375,-0.0406,-0.034,-0.033,-0.0323,-0.0254,-0.0244,-0.0282,-0.0279,-0.0187,-0.0178,-0.017,-0.014,-0.0131,-0.0127,-0.0125,-0.004,-0.004,-0.0039,0,0,0,0,0,0,-0.0464,-0.0457,-0.0385,-0.0407,-0.0395,-0.0339,-0.0332,-0.0322,-0.0303,-0.0244,-0.0232,-0.0273,-0.0186,-0.0175,-0.0137,-0.0136,-0.0126,-0.0122,-0.004,-0.004,-0.004,-0.0087,0,0,0,0,0,0,-0.0467,-0.0459,-0.0462,-0.0408,-0.0395,-0.0361,-0.0332,-0.032,-0.0297,-0.0292,-0.0232,-0.0222,-0.0185,-0.0143,-0.0133,-0.0131,-0.0119,-0.004,-0.004,-0.004,-0.0085,-0.0088,-0.0091,0,0,0,0,0,-0.047,-0.0472,-0.0463,-0.0455,-0.04,-0.0361,-0.0352,-0.031,-0.0297,-0.0291,-0.0248,-0.0224,-0.0135,-0.014,-0.0128,-0.0125,-0.004,-0.004,-0.004,-0.0084,-0.0088,-0.0091,0,0,0,0,0,0,-0.0504,-0.0465,-0.0453,-0.0443,-0.0409,-0.0351,-0.0341,-0.0316,-0.0277,-0.0274,-0.0221,-0.0207,-0.0176,-0.0144,-0.0151,-0.0099,-0.0084,-0.0082,-0.0122,-0.0125,-0.0128,-0.014,-0.0116,0,0,0,0,0,-0.0517,-0.0511,-0.0466,-0.0459,-0.0445,-0.0397,-0.0377,-0.035,-0.0308,-0.029,-0.0248,-0.0205,-0.0166,-0.0142,-0.0106,-0.0076,-0.0043,-0.0067,-0.0069,-0.0072,-0.0075,-0.0023,-0.0022,-0.0039,-0.0039,-0.0039,0,0,-0.0527,-0.0506,-0.0502,-0.0467,-0.0438,-0.0419,-0.0384,-0.0358,-0.034,-0.0286,-0.0253,-0.0215,-0.0162,-0.0128,-0.0111,-0.01,-0.005,-0.0072,-0.0074,-0.0075,-0.0023,-0.0021,-0.002,-0.0039,-0.0039,-0.0039,0,0,-0.0544,-0.0529,-0.0529,-0.0507,-0.047,-0.0439,-0.0436,-0.0384,-0.036,-0.0326,-0.0283,-0.0243,-0.0187,-0.0143,-0.0115,-0.0111,-0.0071,-0.0104,-0.0121,-0.0071,-0.007,-0.0068,-0.0027,-0.0021,-0.01,-0.01,-0.01,0,-0.0559,-0.0553,-0.0523,-0.0515,-0.0499,-0.0453,-0.0446,-0.0414,-0.0357,-0.0335,-0.0323,-0.0233,-0.0191,-0.0139,-0.0138,-0.0116,-0.0087,-0.0114,-0.0075,-0.0073,-0.007,-0.0029,-0.0021,-0.0102,-0.0102,-0.0102,-0.0102,0,-0.0572,-0.0568,-0.0566,-0.0544,-0.0524,-0.0511,-0.0466,-0.0444,-0.0414,-0.0374,-0.0325,-0.0265,-0.0209,-0.0191,-0.0162,-0.0121,-0.0107,-0.009,-0.007,-0.0071,-0.0027,-0.0019,-0.0106,-0.0105,-0.0104,-0.0104,0,0,-0.0597,-0.058,-0.0579,-0.0579,-0.0541,-0.0525,-0.0501,-0.0459,-0.0439,-0.0387,-0.0353,-0.0287,-0.0254,-0.0221,-0.0177,-0.0134,-0.0089,-0.011,-0.0106,-0.0075,0.0013,0.0027,0.0038,-0.0067,-0.0066,-0.0065,0.0034,0,-0.0615,-0.0623,-0.06,-0.0601,-0.06,-0.0557,-0.0537,-0.0495,-0.0451,-0.0407,-0.0341,-0.0295,-0.0264,-0.0239,-0.0191,-0.0112,-0.0069,-0.0118,0.0015,0.0018,0.0027,0.0048,0.0028,0.0115,0.0043,0.0044,0.0045,0,-0.0631,-0.0636,-0.0648,-0.0635,-0.0629,-0.0621,-0.0583,-0.0557,-0.0485,-0.045,-0.0391,-0.0336,-0.0261,-0.0241,-0.0109,-0.0143,-0.0074,-0.0016,-0.001,0.0026,0.0048,0.0107,0.0133,0.0059,0.0058,0.0057,0.0056,0,-0.067,-0.0665,-0.0682,-0.0677,-0.0655,-0.065,-0.0632,-0.0573,-0.0547,-0.0476,-0.0447,-0.0353,-0.0298,-0.0204,-0.0083,-0.0094,0.0062,0.0067,0.0145,0.0147,0.0168,0.0169,0.0155,0.0155,0.0154,0.0154,0.0154,0,-0.0699,-0.0709,-0.0706,-0.0715,-0.0728,-0.0694,-0.0685,-0.0651,-0.0593,-0.0553,-0.0476,-0.0419,-0.0287,-0.0179,-0.0083,0.0062,0.0068,0.0147,0.0177,0.015,0.0149,0.013,0.0125,0.0158,0.0157,0.0156,0.0156,0,-0.0736,-0.0735,-0.0754,-0.075,-0.0749,-0.0759,-0.0731,-0.0717,-0.066,-0.0604,-0.0584,-0.0456,-0.0313,-0.0178,-0.0006,0.007,0.0199,0.0246,0.02,0.0222,0.0248,0.024,0.0342,0.0343,0.0344,0.0345,0.0346,0,-0.0754,-0.0772,-0.079,-0.0807,-0.0808,-0.0813,-0.0811,-0.0761,-0.0734,-0.0616,-0.0588,-0.0443,-0.0319,-0.0072,0.0082,0.0255,0.0251,0.0327,0.0302,0.025,0.0269,0.026,0.025,0.0313,0.0314,0.0314,0.0315,0,-0.0787,-0.0797,-0.0817,-0.0856,-0.0871,-0.0878,-0.0865,-0.0851,-0.077,-0.0706,-0.0581,-0.0472,-0.0231,-0.0034,0.0175,0.027,0.0294,0.0341,0.0323,0.026,0.0229,0.0246,0.0237,0.0318,0.0318,0.0318,0.0317,0.0317,-0.0808,-0.0837,-0.0865,-0.0899,-0.0921,-0.0928,-0.0929,-0.089,-0.0836,-0.0721,-0.0595,-0.0422,-0.0218,0.0077,0.0232,0.0356,0.0354,0.0382,0.0379,0.0375,0.0346,0.0318,0.0418,0.0418,0.0418,0.0418,0.0418,0,-0.0826,-0.0859,-0.0899,-0.0939,-0.0969,-0.0966,-0.0951,-0.0926,-0.0862,-0.0739,-0.0605,-0.0349,-0.0126,0.007,0.0274,0.0406,0.0388,0.0419,0.0373,0.0369,0.0366,0.0333,0.0403,0.0403,0.0404,0.0404,0,0,-0.0837,-0.0882,-0.0906,-0.0964,-0.0993,-0.1016,-0.1008,-0.0946,-0.0863,-0.0715,-0.0584,-0.0407,-0.0137,0.0008,0.0185,0.0292,0.0283,0.0294,0.0294,0.0213,0.0207,0.0336,0.028,0,0,0,0,0]}],[{"header":{"parameterUnit":"m.s-1","parameterCategory":2,"la1":30.2991,"la2":30.254,"lo1":-89.0895,"lo2":-89.0444,"dy":0.0017,"dx":0.0017,"nx":28,"ny":28,"refTime":"2026-01-05T03:00:00:Z","depth":"4","parameterNumber":2,"parameterNumberName":"U-component_of_CURRENTS"},"data":[0,0,0,0,0,0,0,0,0,0,0,0,0,0,0,0,0,0,0,0,0,0,0,0,0,0,0,0,0,0,0,0,0,0,0,0,0,0,0,0,0,0,0,0,0,0,0,0,0,0,0,0,0,0,0,0,0,0,-0.1356,-0.1356,0,-0.1402,-0.1402,-0.1403,-0.1438,-0.1439,-0.1439,-0.144,-0.1467,-0.1468,-0.1468,0,0,0,0,0,0,0,0,0,0,0,0,0,-0.1307,-0.1308,-0.1356,-0.1356,-0.1357,-0.1402,-0.1402,-0.1403,-0.1438,-0.1439,-0.1439,-0.144,-0.1467,-0.1468,-0.1468,0,0,0,0,0,0,0,0,0,0,0,0,0,-0.1338,-0.1308,-0.1356,-0.138,-0.1383,-0.1402,-0.1402,-0.1403,-0.1438,-0.1439,-0.1439,-0.144,-0.1467,-0.1468,-0.1468,-0.146,0,0,-0.147,-0.147,0,0,0,0,0,0,0,0,-0.1336,-0.1339,-0.1376,-0.1379,-0.1382,-0.1415,-0.1395,-0.1421,-0.1438,-0.1417,-0.144,-0.144,-0.1448,-0.145,-0.1457,-0.1461,-0.1462,-0.147,-0.147,-0.147,-0.1471,0,0,0,0,0,0,0,-0.1334,-0.1338,-0.1373,-0.1377,-0.138,-0.1392,-0.1397,-0.1401,-0.1428,-0.1419,-0.1421,-0.1427,-0.145,-0.1457,-0.1458,-0.1463,-0.147,-0.147,-0.1471,-0.1471,-0.1519,-0.152,0,0,0,0,0,0,-0.1328,-0.1335,-0.1372,-0.1375,-0.136,-0.1393,-0.1398,-0.1404,-0.1428,-0.1433,-0.1427,-0.1429,-0.1455,-0.1457,-0.1459,-0.1496,-0.147,-0.1471,-0.1471,-0.1518,-0.1519,-0.152,0,0,0,0,0,0,-0.1327,-0.1331,-0.137,-0.1357,-0.1363,-0.1393,-0.1399,-0.1404,-0.1435,-0.1435,-0.1439,-0.1455,-0.1456,-0.1458,-0.1488,-0.1495,-0.1471,-0.1472,-0.1517,-0.1518,-0.152,-0.154,0,0,0,0,0,0,-0.1325,-0.133,-0.1344,-0.1356,-0.1363,-0.1391,-0.1399,-0.1405,-0.1437,-0.144,-0.146,-0.1462,-0.1456,-0.1487,-0.1488,-0.1496,-0.1472,-0.1516,-0.1518,-0.1519,-0.1538,-0.1542,-0.1545,0,0,0,0,0,-0.1323,-0.1331,-0.1344,-0.135,-0.1377,-0.1391,-0.1396,-0.1419,-0.1438,-0.145,-0.1473,-0.1462,-0.1499,-0.1489,-0.149,-0.1497,-0.1515,-0.1517,-0.1519,-0.1536,-0.1541,-0.1545,0,0,0,0,0,0,-0.1318,-0.1335,-0.1351,-0.1365,-0.1384,-0.1398,-0.1414,-0.1433,-0.1461,-0.1473,-0.1477,-0.1481,-0.1506,-0.1505,-0.1493,-0.1518,-0.1504,-0.1506,-0.1517,-0.1521,-0.1524,-0.151,-0.1473,0,0,0,0,0,-0.1323,-0.1335,-0.1353,-0.1368,-0.1379,-0.1404,-0.1419,-0.1435,-0.1456,-0.1471,-0.1486,-0.1502,-0.1511,-0.1521,-0.1527,-0.1544,-0.1523,-0.155,-0.1553,-0.1556,-0.1547,-0.1533,-0.1534,-0.1527,-0.1527,-0.1527,0,0,-0.1325,-0.1337,-0.1346,-0.1369,-0.1387,-0.1402,-0.1415,-0.1441,-0.1459,-0.1467,-0.1505,-0.1516,-0.152,-0.1537,-0.1548,-0.154,-0.1548,-0.1559,-0.1561,-0.155,-0.1536,-0.1536,-0.1536,-0.1529,-0.1528,-0.1528,0,0,-0.1324,-0.1348,-0.1356,-0.1373,-0.1403,-0.1416,-0.143,-0.1459,-0.148,-0.1513,-0.1522,-0.1541,-0.1565,-0.1562,-0.1563,-0.1591,-0.1567,-0.1601,-0.1606,-0.1594,-0.1594,-0.1593,-0.1564,-0.156,-0.1603,-0.1603,-0.1603,0,-0.133,-0.1342,-0.1361,-0.1375,-0.1393,-0.1425,-0.1441,-0.1462,-0.15,-0.1515,-0.1529,-0.1563,-0.1568,-0.1576,-0.1588,-0.1595,-0.1583,-0.1588,-0.1596,-0.1596,-0.1595,-0.1564,-0.1561,-0.1604,-0.1604,-0.1604,-0.1603,0,-0.1327,-0.1351,-0.1358,-0.1386,-0.1407,-0.1427,-0.1455,-0.1484,-0.1517,-0.1534,-0.1565,-0.1576,-0.1593,-0.16,-0.1603,-0.1605,-0.1596,-0.1601,-0.1581,-0.1596,-0.1564,-0.1559,-0.1606,-0.1605,-0.1605,-0.1605,0,0,-0.13,-0.1348,-0.1353,-0.1375,-0.1417,-0.1432,-0.1465,-0.1494,-0.1518,-0.1552,-0.1574,-0.1591,-0.1604,-0.1606,-0.1613,-0.1605,-0.159,-0.1606,-0.1605,-0.1567,-0.1554,-0.145,-0.1435,-0.1602,-0.1602,-0.1602,-0.1531,0,-0.1296,-0.1324,-0.1349,-0.1385,-0.1403,-0.1444,-0.147,-0.1504,-0.1535,-0.1564,-0.1576,-0.16,-0.1604,-0.162,-0.1612,-0.1601,-0.1581,-0.1608,-0.1552,-0.155,-0.1448,-0.1427,-0.16,-0.1528,-0.1527,-0.1526,-0.1525,0,-0.1279,-0.1304,-0.1337,-0.139,-0.1402,-0.143,-0.148,-0.1507,-0.1547,-0.1572,-0.1593,-0.1609,-0.161,-0.1614,-0.158,-0.1602,-0.1576,-0.1559,-0.1556,-0.1445,-0.1437,-0.1511,-0.1517,-0.1518,-0.1518,-0.1519,-0.1519,0,-0.1241,-0.1293,-0.1323,-0.1341,-0.1403,-0.1431,-0.1466,-0.1512,-0.1532,-0.1579,-0.1592,-0.1605,-0.1605,-0.1587,-0.1554,-0.1574,-0.1503,-0.1524,-0.1398,-0.139,-0.1497,-0.1499,-0.1484,-0.1484,-0.1484,-0.1484,-0.1484,0,-0.1212,-0.1239,-0.1314,-0.1329,-0.1365,-0.1418,-0.1456,-0.1492,-0.1536,-0.154,-0.1593,-0.158,-0.16,-0.1567,-0.1545,-0.144,-0.149,-0.1377,-0.1358,-0.1508,-0.1512,-0.1494,-0.1496,-0.1481,-0.1482,-0.1482,-0.1483,0,-0.1158,-0.121,-0.1246,-0.1322,-0.1348,-0.1373,-0.1442,-0.1458,-0.1514,-0.1519,-0.1532,-0.1555,-0.1502,-0.1494,-0.1449,-0.1401,-0.1335,-0.1286,-0.1426,-0.1421,-0.1234,-0.1239,-0.1135,-0.113,-0.1127,-0.1124,-0.1121,0,-0.1128,-0.1145,-0.1228,-0.1248,-0.1285,-0.1337,-0.1362,-0.1435,-0.1443,-0.1477,-0.1458,-0.1439,-0.1435,-0.1269,-0.1293,-0.1219,-0.1208,-0.1174,-0.1217,-0.1202,-0.1196,-0.1206,-0.1215,-0.1115,-0.1114,-0.1113,-0.1112,0,-0.1065,-0.1108,-0.1136,-0.1177,-0.1214,-0.1243,-0.1286,-0.1279,-0.1338,-0.1406,-0.1328,-0.1287,-0.1218,-0.1176,-0.1119,-0.1079,-0.1202,-0.1135,-0.1143,-0.1184,-0.1177,-0.1177,-0.119,-0.1099,-0.1101,-0.1102,-0.1103,0,-0.1015,-0.1017,-0.106,-0.1082,-0.1127,-0.112,-0.116,-0.1151,-0.1165,-0.1211,-0.1178,-0.1159,-0.1187,-0.1099,-0.1052,-0.0997,-0.099,-0.0972,-0.0989,-0.1004,-0.0996,-0.0971,-0.079,0,0,0,0,0,-0.0956,-0.0944,-0.0959,-0.0966,-0.1007,-0.1022,-0.1089,-0.1129,-0.119,-0.1095,-0.1131,-0.1059,-0.0979,-0.0982,-0.0893,-0.1001,-0.1002,-0.0897,-0.0994,-0.1027,-0.1042,-0.1046,0,0,0,0,0,0,-0.0912,-0.0923,-0.092,-0.0864,-0.0843,-0.0861,-0.0894,-0.094,-0.0898,-0.0967,-0.0922,-0.0983,-0.0917,-0.0985,-0.0858,-0.086,-0.0899,-0.0904,-0.0901,-0.1019,-0.1032,-0.1044,-0.1054,0,0,0,0,0]},{"header":{"parameterUnit":"m.s-1","parameterCategory":2,"la1":30.2991,"la2":30.254,"lo1":-89.0895,"lo2":-89.0444,"dy":0.0017,"dx":0.0017,"nx":28,"ny":28,"refTime":"2026-01-05T03:00:00:Z","depth":"4","parameterNumber":3,"parameterNumberName":"V-component_of_CURRENTS"},"data":[0,0,0,0,0,0,0,0,0,0,0,0,0,0,0,0,0,0,0,0,0,0,0,0,0,0,0,0,0,0,0,0,0,0,0,0,0,0,0,0,0,0,0,0,0,0,0,0,0,0,0,0,0,0,0,0,0,0,-0.0319,-0.0318,0,-0.0263,-0.0262,-0.0261,-0.0231,-0.0231,-0.0231,-0.0231,-0.0176,-0.0175,-0.0173,0,0,0,0,0,0,0,0,0,0,0,0,0,-0.0354,-0.0354,-0.0319,-0.0318,-0.0317,-0.0263,-0.0262,-0.0261,-0.0231,-0.0231,-0.0231,-0.0231,-0.0176,-0.0175,-0.0173,0,0,0,0,0,0,0,0,0,0,0,0,0,-0.0322,-0.0354,-0.0319,-0.0296,-0.0293,-0.0263,-0.0262,-0.0261,-0.0231,-0.0231,-0.0231,-0.0231,-0.0177,-0.0175,-0.0173,-0.0161,0,0,-0.0166,-0.0165,0,0,0,0,0,0,0,0,-0.0324,-0.0321,-0.03,-0.0298,-0.0295,-0.0254,-0.0254,-0.0228,-0.0231,-0.0254,-0.0231,-0.0231,-0.0202,-0.0198,-0.0187,-0.0158,-0.0156,-0.0166,-0.0165,-0.0164,-0.0163,0,0,0,0,0,0,0,-0.0327,-0.0323,-0.0296,-0.0299,-0.0296,-0.0273,-0.0269,-0.0249,-0.0229,-0.0252,-0.025,-0.0244,-0.0201,-0.0189,-0.0186,-0.0155,-0.0166,-0.0164,-0.0163,-0.0162,-0.0102,-0.0102,0,0,0,0,0,0,-0.0337,-0.0326,-0.0298,-0.0294,-0.031,-0.0273,-0.0268,-0.0267,-0.0229,-0.0223,-0.0244,-0.0243,-0.0193,-0.0188,-0.0184,-0.0163,-0.0164,-0.0162,-0.0161,-0.0102,-0.0102,-0.0102,0,0,0,0,0,0,-0.0338,-0.0335,-0.03,-0.0309,-0.0303,-0.0272,-0.0271,-0.0266,-0.0258,-0.0223,-0.0218,-0.0243,-0.0193,-0.0187,-0.0163,-0.0161,-0.0161,-0.0159,-0.0103,-0.0102,-0.0102,-0.0125,0,0,0,0,0,0,-0.0339,-0.0336,-0.0343,-0.031,-0.0303,-0.0287,-0.0271,-0.0265,-0.0254,-0.0252,-0.022,-0.0215,-0.0192,-0.0167,-0.0161,-0.0158,-0.0157,-0.0103,-0.0102,-0.0102,-0.0125,-0.0126,-0.0127,0,0,0,0,0,-0.0341,-0.0347,-0.0344,-0.034,-0.0312,-0.0288,-0.0282,-0.026,-0.0255,-0.0252,-0.0226,-0.0216,-0.0159,-0.0165,-0.0158,-0.0155,-0.0103,-0.0103,-0.0102,-0.0125,-0.0126,-0.0127,0,0,0,0,0,0,-0.0364,-0.0344,-0.0339,-0.0339,-0.0319,-0.0283,-0.028,-0.0265,-0.0243,-0.0243,-0.0211,-0.0203,-0.0184,-0.0165,-0.0172,-0.0135,-0.013,-0.0128,-0.0149,-0.015,-0.0151,-0.016,-0.0156,0,0,0,0,0,-0.0374,-0.0377,-0.0349,-0.0351,-0.0343,-0.0315,-0.0304,-0.0289,-0.0263,-0.0253,-0.0229,-0.0201,-0.0175,-0.016,-0.0138,-0.0117,-0.0095,-0.011,-0.0111,-0.0112,-0.0114,-0.0071,-0.0068,-0.0099,-0.0099,-0.0099,0,0,-0.0384,-0.0374,-0.0375,-0.0357,-0.0341,-0.0329,-0.0308,-0.0296,-0.0283,-0.0251,-0.0232,-0.0207,-0.0171,-0.0146,-0.0136,-0.0131,-0.0092,-0.0111,-0.0112,-0.0114,-0.007,-0.0067,-0.0064,-0.0099,-0.0099,-0.0099,0,0,-0.0398,-0.0396,-0.04,-0.0386,-0.0366,-0.0346,-0.0346,-0.0314,-0.0299,-0.0277,-0.0248,-0.0219,-0.0185,-0.0151,-0.0131,-0.0121,-0.01,-0.012,-0.0126,-0.0084,-0.0081,-0.0079,-0.0051,-0.0046,-0.0116,-0.0116,-0.0116,0,-0.0411,-0.0412,-0.0396,-0.0392,-0.0384,-0.0357,-0.0353,-0.0331,-0.0296,-0.0281,-0.0277,-0.0213,-0.0183,-0.0141,-0.0136,-0.0122,-0.0103,-0.0127,-0.0086,-0.0082,-0.0079,-0.0051,-0.0045,-0.0117,-0.0117,-0.0117,-0.0117,0,-0.042,-0.0424,-0.0424,-0.0413,-0.0401,-0.0395,-0.0364,-0.0352,-0.0334,-0.0307,-0.0271,-0.0226,-0.0186,-0.0171,-0.015,-0.0112,-0.0108,-0.0095,-0.0086,-0.0077,-0.0049,-0.0042,-0.0119,-0.0118,-0.0118,-0.0118,0,0,-0.0439,-0.0433,-0.0435,-0.0437,-0.0414,-0.0405,-0.0387,-0.0359,-0.0347,-0.031,-0.0286,-0.0231,-0.0209,-0.0184,-0.0151,-0.0113,-0.0071,-0.0099,-0.0097,-0.0077,0.0009,-0.0006,0.0,-0.0054,-0.0052,-0.0051,0.0017,0,-0.0452,-0.046,-0.0447,-0.0451,-0.0452,-0.0426,-0.0413,-0.0384,-0.0355,-0.0325,-0.0271,-0.024,-0.0212,-0.0197,-0.0152,-0.0093,-0.0054,-0.0092,0.0002,0.0005,-0.0013,0.0008,-0.0048,0.0023,0.0024,0.0026,0.0026,0,-0.046,-0.0467,-0.048,-0.0477,-0.0474,-0.0473,-0.0452,-0.0434,-0.0383,-0.0359,-0.0313,-0.0274,-0.021,-0.0193,-0.0083,-0.0112,-0.0056,-0.001,-0.0006,-0.0007,0.0003,0.0016,0.004,0.0038,0.0038,0.0037,0.0036,0,-0.0483,-0.0487,-0.0504,-0.0503,-0.0493,-0.0497,-0.0489,-0.045,-0.0434,-0.0384,-0.0366,-0.0287,-0.0248,-0.0166,-0.0071,-0.0077,0.0046,0.0053,0.0094,0.0093,0.0095,0.0092,0.0131,0.0131,0.0131,0.013,0.013,0,-0.0496,-0.0509,-0.0523,-0.0532,-0.0553,-0.0532,-0.0537,-0.0515,-0.0478,-0.0454,-0.0391,-0.0352,-0.024,-0.0156,-0.0074,0.0031,0.0049,0.0095,0.0114,0.0083,0.0077,0.01,0.0096,0.0133,0.0132,0.0132,0.0131,0,-0.0513,-0.0522,-0.0546,-0.0559,-0.0567,-0.0583,-0.0581,-0.0577,-0.0539,-0.0505,-0.0492,-0.0394,-0.0286,-0.0174,-0.0034,0.0023,0.0125,0.0158,0.0109,0.0123,0.0142,0.0136,0.0206,0.0206,0.0206,0.0206,0.0206,0,-0.0519,-0.0536,-0.0576,-0.06,-0.0612,-0.0632,-0.0643,-0.0615,-0.0601,-0.0524,-0.0505,-0.0402,-0.0326,-0.0137,-0.0027,0.0124,0.0144,0.0186,0.017,0.0141,0.0152,0.0146,0.0139,0.0206,0.0207,0.0207,0.0207,0,-0.0531,-0.0555,-0.0579,-0.0633,-0.0664,-0.0685,-0.0693,-0.0683,-0.0634,-0.0605,-0.05,-0.0396,-0.0274,-0.0134,-0.0019,0.0091,0.0152,0.0188,0.0188,0.0174,0.0142,0.0152,0.0146,0.0207,0.0207,0.0207,0.0207,0,-0.0544,-0.0571,-0.0613,-0.0655,-0.0701,-0.072,-0.072,-0.0685,-0.0661,-0.0565,-0.0531,-0.039,-0.0304,-0.015,-0.0039,0.006,0.0081,0.0104,0.0109,0.011,0.0057,0.0002,0.0044,0,0,0,0,0,-0.0548,-0.0581,-0.0626,-0.0675,-0.0721,-0.0742,-0.0742,-0.0728,-0.068,-0.0609,-0.0563,-0.0443,-0.0264,-0.0183,-0.0085,-0.0055,0.0081,0.0059,0.0105,0.0209,0.0209,0.0161,0,0,0,0,0,0,-0.0554,-0.0601,-0.0624,-0.068,-0.0715,-0.0756,-0.0757,-0.0725,-0.0672,-0.0609,-0.051,-0.0438,-0.0266,-0.0322,-0.009,-0.0059,-0.0021,0.0149,0.0151,0.0209,0.0209,0.0209,0.016,0,0,0,0,0]}]]